Location: Bieujac
(44.5398°N, 0.1549°W)
Time: 04:01:21
(UTC+00:00)

Cosmos 2333 Rocket - Pass Details

Date: 17 November 2019
Orbit: 837 x 864 km, 70.8° (Epoch: 05 December)

Event Time Altitude Azimuth Distance (km) Brightness Sun altitude
Rises 05:31:29 0° 341° (NNW) 3,453 5.1 -15.6°
Reaches altitude 10° 05:34:22 10° 353° (N) 2,514 4.5 -15.1°
Maximum altitude 05:39:12 27° 50° (NE) 1,613 4.1 -14.2°
Drops below altitude 10° 05:44:02 10° 107° (ESE) 2,503 6.1 -13.4°
Sets 05:46:52 0° 120° (ESE) 3,434 7.0 -12.9°
